Location: Mountain Lakes
(44.1215°N, 71.9554°W)
Time: 16:45:21
(UTC+00:00)

Cosmos 540 Rocket - Pass Details

Date: 08 September 2024
Orbit: 737 x 749 km, 74.1° (Epoch: 12 October)

Event Time Altitude Azimuth Distance (km) Brightness Sun altitude
Rises 23:26:35 0° 207° (SSW) 3,158 6.9 -3.7°
Reaches altitude 10° 23:28:57 10° 210° (SSW) 2,239 6.2 -4.2°
Maximum altitude 23:33:59 66° 293° (WNW) 808 4.0 -5.0°
Drops below altitude 10° 23:39:03 10° 15° (NNE) 2,252 5.9 -5.9°
Sets 23:41:26 0° 19° (NNE) 3,179 6.7 -6.3°
